When you browse on this site, cookies collect data to enhance your experience and personalize the content and advertising you see.
Visit our Privacy Policy to learn more. By continuing to use the site, you agree to this use of cookies and data.
  • In Hungary
  • List of Countries
  • For 7 days
  • Water Temperature
  • Satellite Maps
  • Weather Map
  • News
  • Weather Widgets
  • user-avatar
    Login

    Hourly Weather Alaquas

    Today, 25 March, Monday

    Time Temperature Precipitation Wind Pressure Humidity
    00:00 +14°C° 0 mm 2 mps 762 mmHg 40%
    01:00 +14°C° 0 mm 2 mps 761 mmHg 38%
    02:00 +14°C° 0 mm 2 mps 761 mmHg 36%
    03:00 +14°C° 0 mm 2 mps 761 mmHg 34%
    04:00 +13°C° 0 mm 2 mps 761 mmHg 34%
    05:00 +13°C° 0 mm 2 mps 761 mmHg 34%
    06:00 +13°C° 0 mm 2 mps 761 mmHg 32%
    07:00 +15°C° 0 mm 2 mps 761 mmHg 30%
    08:00 +18°C° 0 mm 2 mps 761 mmHg 27%
    09:00 +21°C° 0 mm 1 mps 761 mmHg 24%
    10:00 +21°C° 0 mm 2 mps 760 mmHg 24%
    11:00 +22°C° 0 mm 3 mps 760 mmHg 24%
    12:00 +23°C° 0 mm 4 mps 760 mmHg 24%
    13:00 +23°C° 0 mm 4 mps 759 mmHg 26%
    14:00 +22°C° 0 mm 5 mps 759 mmHg 29%
    15:00 +22°C° 0 mm 5 mps 758 mmHg 31%
    16:00 +20°C° 0 mm 4 mps 758 mmHg 39%
    17:00 +18°C° 0 mm 3 mps 758 mmHg 47%
    18:00 +16°C° 0 mm 1 mps 758 mmHg 55%
    19:00 +15°C° 0 mm 1 mps 758 mmHg 59%
    20:00 +14°C° 0 mm 1 mps 759 mmHg 62%
    21:00 +13°C° 0 mm 1 mps 759 mmHg 65%
    22:00 +13°C° 0 mm 1 mps 759 mmHg 63%
    23:00 +13°C° 0 mm 2 mps 759 mmHg 61%

    Tomorrow, 26 March, Tuesday

    Time Temperature Precipitation Wind Pressure Humidity
    00:00 +13°C° 0 mm 2 mps 759 mmHg 59%
    01:00 +12°C° 0 mm 2 mps 759 mmHg 57%
    02:00 +12°C° 0 mm 2 mps 759 mmHg 54%
    03:00 +10°C° 0 mm 2 mps 759 mmHg 52%
    04:00 +10°C° 0 mm 2 mps 760 mmHg 54%
    05:00 +10°C° 0 mm 2 mps 760 mmHg 56%
    06:00 +10°C° 0 mm 2 mps 760 mmHg 57%
    07:00 +11°C° 0 mm 3 mps 760 mmHg 55%
    08:00 +13°C° 0 mm 4 mps 761 mmHg 52%
    09:00 +15°C° 0 mm 4 mps 761 mmHg 49%
    10:00 +16°C° 0 mm 5 mps 761 mmHg 51%
    11:00 +16°C° 0 mm 6 mps 761 mmHg 53%
    12:00 +17°C° 0 mm 6 mps 761 mmHg 54%
    13:00 +17°C° 0 mm 7 mps 761 mmHg 50%
    14:00 +16°C° 0 mm 7 mps 760 mmHg 45%
    15:00 +16°C° 0 mm 7 mps 760 mmHg 40%
    16:00 +15°C° 0 mm 6 mps 761 mmHg 45%
    17:00 +13°C° 0 mm 5 mps 761 mmHg 50%
    18:00 +12°C° 0 mm 4 mps 761 mmHg 55%
    19:00 +12°C° 0 mm 4 mps 762 mmHg 59%
    20:00 +11°C° 0 mm 3 mps 763 mmHg 64%
    21:00 +12°C° 0 mm 2 mps 764 mmHg 68%
    22:00 +10°C° 0 mm 2 mps 764 mmHg 73%
    23:00 +9°C° 0 mm 2 mps 764 mmHg 77%

    Day after tomorrow, 27 March, Wednesday

    Time Temperature Precipitation Wind Pressure Humidity
    00:00 +9°C° 0 mm 2 mps 764 mmHg 81%
    01:00 +8°C° 0 mm 3 mps 763 mmHg 79%
    02:00 +8°C° 0 mm 3 mps 763 mmHg 78%
    03:00 +8°C° 0 mm 3 mps 763 mmHg 76%
    04:00 +8°C° 0 mm 3 mps 763 mmHg 73%
    05:00 +8°C° 0 mm 3 mps 763 mmHg 70%
    06:00 +8°C° 0 mm 3 mps 763 mmHg 67%
    07:00 +10°C° 0 mm 3 mps 763 mmHg 60%
    08:00 +12°C° 0 mm 4 mps 763 mmHg 53%
    09:00 +15°C° 0 mm 4 mps 763 mmHg 46%
    10:00 +15°C° 0 mm 5 mps 763 mmHg 42%
    11:00 +16°C° 0 mm 6 mps 763 mmHg 38%
    12:00 +17°C° 0 mm 7 mps 763 mmHg 34%
    13:00 +17°C° 0 mm 7 mps 763 mmHg 34%
    14:00 +17°C° 0 mm 7 mps 762 mmHg 34%
    15:00 +16°C° 0 mm 7 mps 762 mmHg 34%
    16:00 +15°C° 0 mm 6 mps 762 mmHg 40%
    17:00 +14°C° 0 mm 4 mps 763 mmHg 47%
    18:00 +12°C° 0 mm 3 mps 763 mmHg 53%
    19:00 +12°C° 0 mm 2 mps 764 mmHg 58%
    20:00 +10°C° 0 mm 2 mps 764 mmHg 63%
    21:00 +10°C° 0 mm 1 mps 765 mmHg 68%
    22:00 +9°C° 0 mm 2 mps 765 mmHg 66%
    23:00 +8°C° 0 mm 2 mps 765 mmHg 64%

    28 March, Thursday

    Time Temperature Precipitation Wind Pressure Humidity
    00:00 +8°C° 0 mm 2 mps 765 mmHg 62%
    01:00 +8°C° 0 mm 2 mps 765 mmHg 59%
    02:00 +8°C° 0 mm 2 mps 765 mmHg 56%
    03:00 +8°C° 0 mm 2 mps 765 mmHg 53%
    04:00 +8°C° 0 mm 2 mps 765 mmHg 51%
    05:00 +8°C° 0 mm 2 mps 765 mmHg 48%
    06:00 +8°C° 0 mm 2 mps 765 mmHg 45%
    07:00 +10°C° 0 mm 3 mps 765 mmHg 45%
    08:00 +12°C° 0 mm 3 mps 766 mmHg 44%
    09:00 +16°C° 0 mm 3 mps 766 mmHg 44%
    10:00 +15°C° 0 mm 4 mps 766 mmHg 44%
    11:00 +16°C° 0 mm 5 mps 765 mmHg 44%
    12:00 +17°C° 0 mm 6 mps 765 mmHg 44%
    13:00 +17°C° 0 mm 6 mps 765 mmHg 45%
    14:00 +17°C° 0 mm 6 mps 764 mmHg 46%
    15:00 +17°C° 0 mm 6 mps 764 mmHg 47%
    16:00 +15°C° 0 mm 5 mps 764 mmHg 54%
    17:00 +14°C° 0 mm 4 mps 764 mmHg 60%
    18:00 +13°C° 0 mm 3 mps 765 mmHg 66%
    19:00 +12°C° 0 mm 3 mps 765 mmHg 72%
    20:00 +12°C° 0 mm 2 mps 766 mmHg 77%
    21:00 +10°C° 0 mm 1 mps 767 mmHg 83%
    22:00 +9°C° 0 mm 2 mps 767 mmHg 81%
    23:00 +9°C° 0 mm 2 mps 767 mmHg 80%

    29 March, Friday

    Time Temperature Precipitation Wind Pressure Humidity
    00:00 +9°C° 0 mm 2 mps 767 mmHg 78%
    01:00 +8°C° 0 mm 2 mps 766 mmHg 74%
    02:00 +8°C° 0 mm 2 mps 766 mmHg 69%
    03:00 +8°C° 0 mm 2 mps 766 mmHg 65%
    04:00 +8°C° 0 mm 2 mps 766 mmHg 61%
    05:00 +8°C° 0 mm 2 mps 766 mmHg 58%
    06:00 +8°C° 0 mm 2 mps 766 mmHg 54%
    07:00 +10°C° 0 mm 3 mps 766 mmHg 56%
    08:00 +12°C° 0 mm 4 mps 766 mmHg 57%
    09:00 +14°C° 0 mm 4 mps 766 mmHg 58%
    10:00 +14°C° 0.1 mm 5 mps 766 mmHg 58%
    11:00 +15°C° 0.1 mm 5 mps 766 mmHg 58%
    12:00 +15°C° 0.1 mm 6 mps 765 mmHg 58%
    13:00 +15°C° 0.1 mm 6 mps 765 mmHg 57%
    14:00 +16°C° 0.1 mm 6 mps 765 mmHg 56%
    15:00 +16°C° 0.1 mm 6 mps 764 mmHg 54%
    16:00 +15°C° 0 mm 5 mps 764 mmHg 60%
    17:00 +14°C° 0 mm 5 mps 764 mmHg 65%
    18:00 +13°C° 0 mm 4 mps 764 mmHg 71%
    19:00 +12°C° 0 mm 3 mps 765 mmHg 77%
    20:00 +11°C° 0 mm 3 mps 766 mmHg 83%
    21:00 +10°C° 0 mm 2 mps 766 mmHg 89%
    22:00 +10°C° 0.1 mm 2 mps 766 mmHg 88%
    23:00 +10°C° 0.1 mm 3 mps 766 mmHg 88%

    30 March, Saturday

    Time Temperature Precipitation Wind Pressure Humidity
    00:00 +10°C° 0.1 mm 3 mps 766 mmHg 88%
    01:00 +10°C° 0.1 mm 3 mps 765 mmHg 87%
    02:00 +10°C° 0.1 mm 3 mps 765 mmHg 85%
    03:00 +10°C° 0.1 mm 3 mps 765 mmHg 84%
    04:00 +10°C° 0.1 mm 3 mps 765 mmHg 83%
    05:00 +10°C° 0.1 mm 3 mps 765 mmHg 81%
    06:00 +9°C° 0.1 mm 3 mps 765 mmHg 80%
    07:00 +10°C° 0.1 mm 3 mps 765 mmHg 78%
    08:00 +11°C° 0.1 mm 3 mps 765 mmHg 76%
    09:00 +12°C° 0.1 mm 4 mps 764 mmHg 74%
    10:00 +13°C° 0.1 mm 4 mps 764 mmHg 70%
    11:00 +14°C° 0.1 mm 4 mps 764 mmHg 65%
    12:00 +16°C° 0.1 mm 5 mps 764 mmHg 60%
    13:00 +16°C° 0 mm 5 mps 763 mmHg 58%
    14:00 +16°C° 0 mm 6 mps 762 mmHg 55%
    15:00 +16°C° 0 mm 6 mps 762 mmHg 53%
    16:00 +15°C° 0 mm 5 mps 762 mmHg 59%
    17:00 +14°C° 0 mm 5 mps 762 mmHg 65%
    18:00 +13°C° 0 mm 4 mps 762 mmHg 70%
    19:00 +13°C° 0 mm 4 mps 762 mmHg 76%
    20:00 +12°C° 0 mm 3 mps 762 mmHg 82%
    21:00 +11°C° 0 mm 3 mps 763 mmHg 88%
    22:00 +11°C° 0 mm 3 mps 762 mmHg 86%
    23:00 +10°C° 0 mm 3 mps 762 mmHg 84%
    Show more